[[{"header":{"parameterUnit":"m.s-1","parameterCategory":1,"la1":30.2991,"la2":30.254,"lo1":-89.0895,"lo2":-89.0444,"dy":0.0017,"dx":0.0017,"nx":28,"ny":28,"refTime":"2024-04-30T21:00:00:Z","depth":0,"parameterNumber":2,"parameterNumberName":"U-component_of_WINDS"},"data":[0,0,0,0,0,0,0,0,0,0,0,0,0,0,0,0,0,0,0,0,0,0,0,0,0,0,0,0,0,0,0,0,0,0,0,0,0,0,0,0,0,0,0,0,0,0,0,0,0,0,0,0,0,0,0,0,0,0,-3.5123,-3.5123,0,-3.509,-3.5089,-3.5089,-3.5012,-3.5011,-3.5009,-3.5008,-3.4975,-3.4976,-3.4976,0,0,0,0,0,0,0,0,0,0,0,0,0,-3.5124,-3.5124,-3.5123,-3.5123,-3.5122,-3.509,-3.5089,-3.5089,-3.5013,-3.5011,-3.5009,-3.5007,-3.4975,-3.4976,-3.4976,0,0,0,0,0,0,0,0,0,0,0,0,0,-3.511,-3.5124,-3.5123,-3.508,-3.5076,-3.509,-3.5089,-3.5089,-3.5013,-3.5011,-3.5008,-3.5006,-3.4975,-3.4976,-3.4977,-3.503,0,0,-3.4979,-3.498,0,0,0,0,0,0,0,0,-3.5111,-3.511,-3.5087,-3.5083,-3.5079,-3.5053,-3.5077,-3.5069,-3.5014,-3.5037,-3.5008,-3.5005,-3.5003,-3.5001,-3.5,-3.5028,-3.5027,-3.4979,-3.498,-3.498,-3.4981,0,0,0,0,0,0,0,-3.5112,-3.5111,-3.511,-3.5087,-3.5082,-3.5064,-3.5059,-3.5076,-3.5034,-3.5035,-3.5029,-3.5026,-3.5,-3.5,-3.4999,-3.5026,-3.4979,-3.498,-3.4981,-3.4981,-3.5096,-3.5099,0,0,0,0,0,0,-3.5119,-3.5113,-3.5111,-3.5109,-3.5089,-3.5066,-3.506,-3.5063,-3.5033,-3.5026,-3.5028,-3.5023,-3.4999,-3.4998,-3.4998,-3.5057,-3.498,-3.4981,-3.4982,-3.5094,-3.5097,-3.51,0,0,0,0,0,0,-3.5119,-3.512,-3.5112,-3.5109,-3.5107,-3.5068,-3.5072,-3.5064,-3.5063,-3.5028,-3.5021,-3.5035,-3.4997,-3.4996,-3.5022,-3.5055,-3.4982,-3.4982,-3.5091,-3.5095,-3.5098,-3.5178,0,0,0,0,0,0,-3.512,-3.512,-3.5139,-3.511,-3.5107,-3.5137,-3.5074,-3.5065,-3.5065,-3.5057,-3.5033,-3.5026,-3.4995,-3.5021,-3.5023,-3.5055,-3.4983,-3.5088,-3.5093,-3.5097,-3.5172,-3.5184,-3.5194,0,0,0,0,0,-3.512,-3.5163,-3.5141,-3.5141,-3.513,-3.5139,-3.5137,-3.51,-3.5068,-3.5087,-3.5065,-3.5027,-3.5052,-3.5025,-3.5026,-3.5059,-3.5086,-3.5091,-3.5097,-3.5167,-3.5181,-3.5194,0,0,0,0,0,0,-3.5197,-3.5159,-3.5133,-3.5168,-3.5157,-3.5126,-3.5148,-3.5116,-3.5115,-3.5108,-3.5063,-3.5058,-3.509,-3.5077,-3.5048,-3.5109,-3.5063,-3.5069,-3.5116,-3.5129,-3.514,-3.5141,-3.4984,0,0,0,0,0,-3.5218,-3.5228,-3.5194,-3.5228,-3.5224,-3.5188,-3.519,-3.5163,-3.515,-3.5145,-3.5124,-3.5114,-3.512,-3.5124,-3.5127,-3.5171,-3.5164,-3.5194,-3.5205,-3.5214,-3.522,-3.5242,-3.5255,-3.5118,-3.5118,-3.5118,0,0,-3.5262,-3.5242,-3.5251,-3.5243,-3.5231,-3.5243,-3.5184,-3.5199,-3.5207,-3.5147,-3.517,-3.5155,-3.5141,-3.5176,-3.519,-3.5166,-3.5256,-3.5222,-3.5229,-3.5229,-3.5249,-3.5262,-3.5274,-3.5122,-3.5121,-3.5121,0,0,-3.5347,-3.5333,-3.5359,-3.5349,-3.5333,-3.5308,-3.5315,-3.5289,-3.5277,-3.5299,-3.5255,-3.5265,-3.5275,-3.5266,-3.5263,-3.5347,-3.5313,-3.535,-3.5406,-3.5429,-3.5439,-3.5449,-3.5478,-3.5489,-3.5356,-3.5356,-3.5356,0,-3.5403,-3.5417,-3.5378,-3.5395,-3.5393,-3.534,-3.5367,-3.536,-3.5345,-3.5346,-3.5319,-3.5331,-3.5318,-3.535,-3.5371,-3.537,-3.5377,-3.5351,-3.5441,-3.545,-3.5458,-3.5485,-3.5497,-3.5361,-3.536,-3.536,-3.5359,0,-3.5487,-3.5498,-3.5522,-3.5509,-3.551,-3.5533,-3.5497,-3.5503,-3.5477,-3.5456,-3.548,-3.5462,-3.5461,-3.5467,-3.5441,-3.5496,-3.5481,-3.5449,-3.5401,-3.5476,-3.5501,-3.5511,-3.5367,-3.5365,-3.5364,-3.5363,0,0,-3.5617,-3.5583,-3.5592,-3.5586,-3.5564,-3.5572,-3.5594,-3.5592,-3.5598,-3.5591,-3.5607,-3.5618,-3.5587,-3.5584,-3.5557,-3.5577,-3.5644,-3.5542,-3.5541,-3.5561,-3.5704,-3.5727,-3.574,-3.5622,-3.5624,-3.5626,-3.5704,0,-3.5696,-3.5727,-3.5693,-3.5733,-3.5743,-3.5694,-3.5712,-3.5701,-3.5683,-3.569,-3.567,-3.5678,-3.5638,-3.5636,-3.5653,-3.5633,-3.5672,-3.5627,-3.5637,-3.5638,-3.564,-3.5753,-3.5778,-3.5852,-3.5714,-3.5716,-3.5717,0,-3.5791,-3.5787,-3.5828,-3.5804,-3.5807,-3.5824,-3.582,-3.5827,-3.5815,-3.58,-3.5798,-3.5766,-3.5785,-3.5741,-3.5767,-3.5737,-3.574,-3.573,-3.5733,-3.573,-3.568,-3.5753,-3.5875,-3.5886,-3.5732,-3.5731,-3.573,0,-3.588,-3.5886,-3.5911,-3.5907,-3.5881,-3.5894,-3.5884,-3.5869,-3.5871,-3.5868,-3.5869,-3.5869,-3.5869,-3.587,-3.5839,-3.5809,-3.587,-3.5822,-3.5858,-3.5859,-3.5871,-3.587,-3.5994,-3.5876,-3.5876,-3.5875,-3.5875,0,-3.597,-3.5997,-3.5951,-3.5966,-3.5994,-3.5956,-3.5986,-3.5971,-3.5958,-3.597,-3.5929,-3.5941,-3.5901,-3.5909,-3.5886,-3.5911,-3.5912,-3.59,-3.5893,-3.5903,-3.5904,-3.5903,-3.5896,-3.5878,-3.5878,-3.5877,-3.5877,0,-3.6074,-3.6044,-3.6068,-3.6042,-3.6036,-3.6058,-3.6036,-3.6049,-3.6029,-3.6045,-3.6046,-3.6015,-3.6023,-3.5993,-3.5996,-3.598,-3.6018,-3.6003,-3.6021,-3.6016,-3.6053,-3.605,-3.6179,-3.6194,-3.6068,-3.6069,-3.607,0,-3.6132,-3.6151,-3.6127,-3.6132,-3.6124,-3.6133,-3.6134,-3.6098,-3.6101,-3.6089,-3.6104,-3.6109,-3.611,-3.6126,-3.6103,-3.6106,-3.609,-3.6135,-3.609,-3.6099,-3.6089,-3.6088,-3.6089,-3.6144,-3.6146,-3.6147,-3.6148,0,-3.6239,-3.6224,-3.6227,-3.6225,-3.6228,-3.6225,-3.622,-3.6227,-3.6188,-3.6194,-3.6201,-3.6202,-3.6206,-3.6211,-3.6209,-3.6199,-3.6167,-3.6163,-3.6171,-3.618,-3.6189,-3.6184,-3.6045,-3.6159,-3.6158,-3.6157,-3.6157,-3.6156,-3.6321,-3.6335,-3.6321,-3.6326,-3.6318,-3.6315,-3.6326,-3.6307,-3.6313,-3.6312,-3.6291,-3.6303,-3.6291,-3.6285,-3.6279,-3.6288,-3.6267,-3.6279,-3.6282,-3.6285,-3.6291,-3.619,-3.6288,-3.6288,-3.6287,-3.6287,-3.6287,0,-3.6424,-3.6413,-3.6418,-3.6412,-3.6416,-3.6386,-3.6379,-3.6385,-3.6395,-3.6387,-3.639,-3.6399,-3.6404,-3.6383,-3.6385,-3.6397,-3.6382,-3.6399,-3.6397,-3.6395,-3.631,-3.6302,-3.641,-3.641,-3.641,-3.641,-3.641,-3.641,-3.6478,-3.6501,-3.6485,-3.6504,-3.6493,-3.6503,-3.6502,-3.6499,-3.6492,-3.6504,-3.6508,-3.6494,-3.6481,-3.6482,-3.6486,-3.648,-3.6482,-3.6503,-3.6492,-3.6413,-3.6401,-3.6389,-3.6381,-3.6504,-3.6505,-3.6576,-3.6576,-3.6577]},{"header":{"parameterUnit":"m.s-1","parameterCategory":1,"la1":30.2991,"la2":30.254,"lo1":-89.0895,"lo2":-89.0444,"dy":0.0017,"dx":0.0017,"nx":28,"ny":28,"refTime":"2024-04-30T21:00:00:Z","depth":0,"parameterNumber":3,"parameterNumberName":"V-component_of_WINDS"},"data":[0,0,0,0,0,0,0,0,0,0,0,0,0,0,0,0,0,0,0,0,0,0,0,0,0,0,0,0,0,0,0,0,0,0,0,0,0,0,0,0,0,0,0,0,0,0,0,0,0,0,0,0,0,0,0,0,0,0,3.8352,3.8351,0,3.8314,3.8313,3.8313,3.8314,3.8315,3.8315,3.8316,3.8273,3.8271,3.827,0,0,0,0,0,0,0,0,0,0,0,0,0,3.8423,3.8422,3.8352,3.8351,3.8351,3.8314,3.8313,3.8313,3.8314,3.8315,3.8315,3.8316,3.8273,3.8271,3.8269,0,0,0,0,0,0,0,0,0,0,0,0,0,3.8389,3.8422,3.8352,3.8347,3.8347,3.8314,3.8313,3.8313,3.8314,3.8315,3.8316,3.8316,3.8274,3.8272,3.8269,3.8237,0,0,3.8262,3.826,0,0,0,0,0,0,0,0,3.8391,3.8387,3.8348,3.8348,3.8347,3.832,3.8323,3.8287,3.8314,3.8326,3.8316,3.8317,3.8287,3.8284,3.8275,3.8235,3.8234,3.8261,3.826,3.8259,3.8258,0,0,0,0,0,0,0,3.8394,3.8388,3.8337,3.8348,3.8347,3.8346,3.8342,3.8316,3.8303,3.8325,3.8325,3.8321,3.8287,3.8277,3.8274,3.8233,3.8261,3.8259,3.8258,3.8257,3.8167,3.8166,0,0,0,0,0,0,3.8397,3.839,3.8338,3.8336,3.8372,3.8344,3.834,3.8327,3.8303,3.83,3.832,3.8321,3.8281,3.8277,3.8272,3.8235,3.8259,3.8256,3.8255,3.8168,3.8167,3.8166,0,0,0,0,0,0,3.8399,3.8393,3.8339,3.8363,3.8356,3.8342,3.8328,3.8326,3.8316,3.8299,3.8297,3.8313,3.8282,3.8276,3.8247,3.8233,3.8255,3.8253,3.8169,3.8168,3.8166,3.8159,0,0,0,0,0,0,3.8401,3.8393,3.8382,3.8363,3.8355,3.8315,3.8327,3.8325,3.8313,3.8313,3.8292,3.8289,3.8282,3.825,3.8244,3.823,3.8251,3.817,3.8168,3.8167,3.816,3.8157,3.8155,0,0,0,0,0,3.8404,3.838,3.8381,3.8375,3.834,3.8314,3.831,3.8304,3.8312,3.8299,3.8289,3.8289,3.8236,3.8247,3.824,3.8225,3.8171,3.8169,3.8167,3.8161,3.8158,3.8155,0,0,0,0,0,0,3.8395,3.8377,3.8378,3.8348,3.8333,3.8315,3.8299,3.83,3.8281,3.8282,3.8274,3.8269,3.824,3.823,3.8243,3.8194,3.8204,3.8201,3.8202,3.8199,3.8196,3.8199,3.8249,0,0,0,0,0,3.8391,3.8372,3.8357,3.8331,3.8324,3.8313,3.8301,3.8298,3.8282,3.8275,3.8262,3.8245,3.8225,3.8211,3.8191,3.8159,3.8154,3.8145,3.8142,3.814,3.8137,3.812,3.8116,3.8159,3.8159,3.8159,0,0,3.8379,3.8367,3.8356,3.8329,3.8317,3.8298,3.8307,3.8286,3.8272,3.8271,3.8244,3.8234,3.8214,3.8184,3.817,3.8174,3.8124,3.8138,3.8136,3.8134,3.8118,3.8114,3.811,3.8158,3.8158,3.8158,0,0,3.8349,3.8338,3.8317,3.8305,3.8288,3.8281,3.8276,3.8258,3.8252,3.8224,3.8224,3.8206,3.817,3.8157,3.8146,3.8113,3.8113,3.8106,3.8092,3.8076,3.8072,3.8069,3.8058,3.8054,3.8103,3.8103,3.8103,0,3.8337,3.8309,3.8305,3.8284,3.8273,3.8274,3.8252,3.824,3.8216,3.8208,3.8214,3.8171,3.8157,3.8124,3.8117,3.8107,3.8101,3.8108,3.8074,3.807,3.8067,3.8057,3.8052,3.8103,3.8103,3.8103,3.8103,0,3.8296,3.8277,3.8261,3.824,3.8227,3.8205,3.8197,3.8184,3.8182,3.8175,3.8147,3.8132,3.811,3.8101,3.8098,3.8068,3.8072,3.8075,3.8085,3.8063,3.8053,3.8048,3.8102,3.8102,3.8102,3.8102,0,0,3.8259,3.8238,3.8232,3.8223,3.8205,3.8189,3.8168,3.8148,3.8137,3.8121,3.8102,3.8073,3.8078,3.8065,3.806,3.8046,3.8022,3.8052,3.8051,3.8047,3.7988,3.7986,3.7981,3.8022,3.8021,3.8021,3.799,0,3.8228,3.8192,3.8188,3.8155,3.8137,3.8138,3.812,3.8106,3.8099,3.8082,3.8073,3.8053,3.806,3.8052,3.8038,3.8028,3.801,3.803,3.8005,3.8004,3.801,3.7976,3.7973,3.7945,3.7986,3.7985,3.7985,0,3.8186,3.8171,3.8137,3.8123,3.8115,3.8099,3.8081,3.8065,3.8049,3.8045,3.8031,3.8029,3.8007,3.8018,3.7987,3.8001,3.7991,3.7984,3.7983,3.798,3.7993,3.7973,3.7936,3.7932,3.7978,3.7979,3.7979,0,3.8164,3.8134,3.8111,3.8103,3.8085,3.8074,3.8066,3.8051,3.804,3.8024,3.8016,3.7997,3.7986,3.7971,3.7964,3.7973,3.7934,3.7944,3.7929,3.7929,3.7921,3.7921,3.7882,3.7914,3.7914,3.7914,3.7914,0,3.8129,3.8109,3.8101,3.8086,3.8063,3.8059,3.8036,3.8028,3.8016,3.7999,3.7998,3.7983,3.7974,3.7957,3.7951,3.7927,3.7922,3.7917,3.7916,3.7918,3.7918,3.7911,3.7912,3.7913,3.7913,3.7913,3.7913,0,3.81,3.8094,3.8069,3.8055,3.8051,3.8034,3.8022,3.8008,3.8001,3.798,3.7975,3.7964,3.7944,3.7936,3.7911,3.7907,3.7879,3.7879,3.7885,3.7885,3.7871,3.7872,3.7825,3.7819,3.7854,3.7854,3.7854,0,3.8079,3.8063,3.8048,3.8038,3.803,3.8013,3.8002,3.7997,3.7986,3.7968,3.7956,3.7936,3.792,3.7888,3.7878,3.7859,3.7858,3.7843,3.7855,3.7858,3.7859,3.786,3.7859,3.7841,3.7841,3.784,3.784,0,3.8042,3.804,3.8025,3.8009,3.7997,3.7983,3.797,3.7962,3.7955,3.7941,3.7922,3.791,3.7886,3.7866,3.7847,3.7838,3.7838,3.7836,3.7832,3.7834,3.7838,3.7836,3.7879,3.7837,3.7838,3.7838,3.7838,3.7838,3.8016,3.8003,3.7991,3.7975,3.7965,3.7953,3.794,3.7932,3.7916,3.7897,3.7895,3.7874,3.786,3.7834,3.7824,3.7808,3.7811,3.7805,3.7803,3.7802,3.7802,3.7841,3.7804,3.7804,3.7804,3.7804,3.7804,0,3.798,3.7973,3.7958,3.7941,3.7928,3.7931,3.7917,3.7905,3.7888,3.7875,3.786,3.7838,3.782,3.7809,3.779,3.7779,3.7779,3.7774,3.7775,3.7773,3.7799,3.7805,3.7775,3.7775,3.7775,3.7775,3.7775,3.7775,3.796,3.7938,3.7935,3.7909,3.7901,3.7882,3.7874,3.7864,3.7854,3.783,3.7815,3.7809,3.7796,3.7777,3.776,3.7757,3.7751,3.7746,3.7744,3.7768,3.7771,3.7774,3.778,3.7745,3.7745,3.7719,3.7719,3.7719]}]]